GW1859 Weather Reports


Display with metric or nautical units.
time (UTC)temp
F
wind
direction
speed
MPH
gust
MPH
rain 1hr
in
rain 24hr
in
rain mn
in
humidity
%
barometer
mb
20260503024030 53 135 0.0 0.0 0.00 0.00 0.00 51 1019.7
20260503023527 53 135 0.0 0.0 0.00 0.00 0.00 50 1019.7
20260503023025 53 135 0.0 0.0 0.00 0.00 0.00 49 1019.9
20260503022520 54 135 0.0 0.0 0.00 0.00 0.00 48 1019.9
20260503022015 54 135 0.0 0.0 0.00 0.00 0.00 49 1019.7
20260503021512 55 135 0.0 0.0 0.00 0.00 0.00 48 1019.7
20260503021009 55 135 0.0 0.0 0.00 0.00 0.00 47 1019.9
20260503020507 55 135 0.0 0.0 0.00 0.00 0.00 46 1019.6
20260503020003 56 135 0.0 0.0 0.00 0.00 0.00 45 1019.7
20260503015500 56 135 0.0 0.0 0.00 0.00 0.00 44 1019.5
20260503014956 56 135 0.0 0.0 0.00 0.00 0.00 43 1019.6
20260503014453 57 135 0.0 0.0 0.00 0.00 0.00 43 1019.5
20260503013951 57 135 0.0 0.0 0.00 0.00 0.00 44 1019.6
20260503013448 58 135 0.0 0.0 0.00 0.00 0.00 42 1019.5
20260503012945 58 135 0.0 0.0 0.00 0.00 0.00 42 1019.3
20260503012443 59 135 0.0 0.0 0.00 0.00 0.00 39 1019.6
20260503011939 59 135 0.0 0.0 0.00 0.00 0.00 41 1019.6
20260503011436 60 135 0.0 0.0 0.00 0.00 0.00 39 1019.3
20260503010933 61 135 0.0 0.0 0.00 0.00 0.00 36 1019.5
20260503010429 62 135 0.0 0.0 0.00 0.00 0.00 35 1019.5
20260503005927 63 135 0.0 0.0 0.00 0.00 0.00 35 1019.5
20260503005424 64 136 0.0 0.0 0.00 0.00 0.00 35 1019.6
20260503004920 65 136 0.0 0.0 0.00 0.00 0.00 35 1019.7
20260503004417 66 137 0.0 0.0 0.00 0.00 0.00 31 1019.7
20260503003915 67 137 0.0 0.0 0.00 0.00 0.00 30 1019.7
20260503003411 69 137 0.0 0.0 0.00 0.00 0.00 31 1019.7
20260503002909 71 138 0.0 0.0 0.00 0.00 0.00 29 1019.7
20260503002406 72 135 0.0 0.0 0.00 0.00 0.00 30 1019.7
20260503001902 72 129 0.0 0.0 0.00 0.00 0.00 24 1019.8
20260503001358 72 151 0.0 0.0 0.00 0.00 0.00 26 1019.8
20260503000857 72 148 0.0 0.0 0.00 0.00 0.00 27 1019.9
20260503000353 73 111 0.0 0.0 0.00 0.00 0.00 25 1020.0
20260502235850 73 143 0.0 0.0 0.00 0.00 0.00 23 1019.8
20260502235347 72 152 0.0 0.0 0.00 0.00 0.00 25 1019.9
20260502234844 71 157 0.0 0.0 0.00 0.00 0.00 24 1020.0
20260502234341 72 171 0.0 0.0 0.00 0.00 0.00 23 1020.3
20260502233838 72 134 0.0 0.0 0.00 0.00 0.00 25 1020.2
20260502233334 72 232 1.0 1.0 0.00 0.00 0.00 22 1020.1
20260502232831 73 138 0.0 1.0 0.00 0.00 0.00 23 1020.2
20260502232327 73 158 0.0 0.0 0.00 0.00 0.00 25 1020.1
20260502231824 72 254 2.0 2.0 0.00 0.00 0.00 24 1020.1
20260502231322 73 172 0.0 1.0 0.00 0.00 0.00 26 1020.1
20260502230820 73 152 0.0 0.0 0.00 0.00 0.00 25 1020.2
20260502230318 73 103 0.0 1.0 0.00 0.00 0.00 27 1020.3
20260502225814 73 140 0.0 0.0 0.00 0.00 0.00 30 1020.4
20260502225311 73 74 1.0 1.0 0.00 0.00 0.00 27 1020.0
20260502224808 73 330 3.0 3.0 0.00 0.00 0.00 26 1020.2
20260502224304 72 347 2.0 2.0 0.00 0.00 0.00 27 1020.2
20260502223802 73 154 0.0 0.0 0.00 0.00 0.00 27 1020.3
20260502223300 73 198 1.0 2.0 0.00 0.00 0.00 26 1020.1
20260502222757 73 136 0.0 0.0 0.00 0.00 0.00 27 1020.3
20260502222254 73 168 0.0 0.0 0.00 0.00 0.00 27 1020.5
20260502221750 72 105 1.0 1.0 0.00 0.00 0.00 26 1020.4
20260502221246 73 122 1.0 3.0 0.00 0.00 0.00 26 1020.4
20260502220743 74 171 1.0 2.0 0.00 0.00 0.00 27 1020.5
20260502220239 74 158 0.0 0.0 0.00 0.00 0.00 26 1020.6
20260502215736 72 219 1.0 1.0 0.00 0.00 0.00 27 1020.7
20260502215233 72 213 1.0 2.0 0.00 0.00 0.00 30 1020.6
20260502214730 71 175 1.0 1.0 0.00 0.00 0.00 29 1020.5
20260502214227 71 175 1.0 1.0 0.00 0.00 0.00 29 1020.8
20260502213725 71 175 1.0 1.0 0.00 0.00 0.00 29 1020.8
20260502213222 71 175 1.0 1.0 0.00 0.00 0.00 29 1020.8
20260502212720 70 305 1.0 2.0 0.00 0.00 0.00 29 1021.1
20260502212218 70 340 4.0 5.0 0.00 0.00 0.00 29 1021.1
20260502211714 71 288 2.0 2.0 0.00 0.00 0.00 27 1021.1
20260502211211 71 83 0.0 1.0 0.00 0.00 0.00 29 1021.3
20260502210708 73 181 2.0 3.0 0.00 0.00 0.00 27 1021.3
20260502210205 71 97 2.0 3.0 0.00 0.00 0.00 30 1021.4
20260502205702 71 97 2.0 3.0 0.00 0.00 0.00 30 1021.4
20260502205158 71 97 2.0 3.0 0.00 0.00 0.00 30 1021.7
20260502204655 70 187 0.0 1.0 0.00 0.00 0.00 28 1021.6
20260502204153 70 9 1.0 2.0 0.00 0.00 0.00 28 1021.6
20260502203650 70 23 1.0 1.0 0.00 0.00 0.00 30 1021.8
20260502203149 70 295 2.0 3.0 0.00 0.00 0.00 28 1021.6
20260502202643 70 258 0.0 0.0 0.00 0.00 0.00 30 1021.8
20260502202141 70 311 2.0 2.0 0.00 0.00 0.00 33 1021.8
20260502201637 72 294 1.0 2.0 0.00 0.00 0.00 32 1021.8
20260502201134 71 145 0.0 1.0 0.00 0.00 0.00 33 1021.8
20260502200630 70 113 0.0 1.0 0.00 0.00 0.00 32 1022.1
20260502200127 70 162 1.0 2.0 0.00 0.00 0.00 32 1022.3
20260502195626 69 102 0.0 1.0 0.00 0.00 0.00 31 1022.1
20260502195121 68 131 0.0 0.0 0.00 0.00 0.00 35 1022.3
20260502194618 68 169 0.0 1.0 0.00 0.00 0.00 33 1022.2
20260502194114 69 127 0.0 0.0 0.00 0.00 0.00 33 1022.1
20260502193611 69 128 0.0 0.0 0.00 0.00 0.00 34 1022.3
20260502193108 70 318 1.0 3.0 0.00 0.00 0.00 32 1022.4
20260502192603 68 154 2.0 2.0 0.00 0.00 0.00 35 1022.6
20260502192056 69 357 3.0 3.0 0.00 0.00 0.00 34 1022.4
20260502191552 70 117 0.0 1.0 0.00 0.00 0.00 33 1022.4
20260502191050 69 80 0.0 1.0 0.00 0.00 0.00 34 1022.5
20260502190547 68 308 1.0 2.0 0.00 0.00 0.00 36 1022.5
20260502190044 67 142 1.0 2.0 0.00 0.00 0.00 38 1022.6
20260502185539 67 199 0.0 1.0 0.00 0.00 0.00 35 1022.9
20260502185036 66 358 3.0 6.0 0.00 0.00 0.00 36 1022.9
20260502184532 68 327 2.0 2.0 0.00 0.00 0.00 34 1023.0
20260502184028 68 121 0.0 0.0 0.00 0.00 0.00 39 1023.1
20260502183525 68 121 0.0 0.0 0.00 0.00 0.00 39 1022.9
20260502183021 68 114 1.0 1.0 0.00 0.00 0.00 38 1023.0
20260502182515 65 160 1.0 1.0 0.00 0.00 0.00 39 1023.0
20260502182012 66 264 1.0 2.0 0.00 0.00 0.00 35 1023.2
20260502181510 66 337 1.0 3.0 0.00 0.00 0.00 37 1023.3
20260502181009 68 125 0.0 1.0 0.00 0.00 0.00 38 1023.1
20260502180505 66 303 1.0 2.0 0.00 0.00 0.00 40 1023.4
20260502170424 62 136 0.0 0.0 0.00 0.00 0.00 41 1023.8
20260502163908 61 335 2.0 3.0 0.00 0.00 0.00 40 1024.1
20260502163404 64 114 1.0 1.0 0.00 0.00 0.00 38 1024.2
20260502162902 63 119 0.0 0.0 0.00 0.00 0.00 38 1024.0
20260502162358 63 94 1.0 2.0 0.00 0.00 0.00 38 1024.1
20260502161855 61 123 0.0 1.0 0.00 0.00 0.00 44 1024.0
20260502161351 62 118 0.0 0.0 0.00 0.00 0.00 46 1024.1
20260502160849 61 67 2.0 2.0 0.00 0.00 0.00 44 1024.1
20260502160347 63 108 1.0 2.0 0.00 0.00 0.00 39 1024.1
20260502152328 61 135 0.0 0.0 0.00 0.00 0.00 52 1024.2
20260502151826 60 133 0.0 0.0 0.00 0.00 0.00 48 1024.1
20260502151322 60 130 0.0 0.0 0.00 0.00 0.00 52 1024.0
20260502150820 58 128 0.0 0.0 0.00 0.00 0.00 52 1024.5
20260502150316 59 126 0.0 0.0 0.00 0.00 0.00 53 1024.6
20260502130705 44 126 0.0 0.0 0.00 0.00 0.00 98 1023.2
20260502130202 44 126 0.0 0.0 0.00 0.00 0.00 98 1023.6
20260502123648 41 126 0.0 0.0 0.00 0.00 0.00 98 1023.3
20260502123145 41 126 0.0 0.0 0.00 0.00 0.00 98 1023.4
20260502122641 41 126 0.0 0.0 0.00 0.00 0.00 98 1023.1
20260502122138 41 126 0.0 0.0 0.00 0.00 0.00 98 1022.9
20260502121636 41 126 0.0 0.0 0.00 0.00 0.00 98 1022.8
20260502121133 41 126 0.0 0.0 0.00 0.00 0.00 98 1022.7
20260502120629 41 126 0.0 0.0 0.00 0.00 0.00 98 1022.6
20260502120126 41 126 0.0 0.0 0.00 0.00 0.00 98 1022.9
20260502115624 41 125 0.0 0.0 0.00 0.00 0.00 98 1022.8
20260502115120 41 125 0.0 0.0 0.00 0.00 0.00 98 1022.6
20260502114616 41 125 0.0 0.0 0.00 0.00 0.00 98 1022.6
20260502114114 41 125 0.0 0.0 0.00 0.00 0.00 98 1022.5
20260502113611 41 125 0.0 0.0 0.00 0.00 0.00 98 1022.4
20260502113109 41 125 0.0 0.0 0.00 0.00 0.00 98 1022.4
20260502112607 41 125 0.0 0.0 0.00 0.00 0.00 98 1022.4
20260502112104 41 125 0.0 0.0 0.00 0.00 0.00 98 1022.4
20260502111601 42 125 0.0 0.0 0.00 0.00 0.00 98 1022.1
20260502111059 42 125 0.0 0.0 0.00 0.00 0.00 98 1022.3
20260502110556 42 125 0.0 0.0 0.00 0.00 0.00 98 1022.3
20260502110054 42 125 0.0 0.0 0.00 0.00 0.00 98 1022.1
20260502105551 42 125 0.0 0.0 0.00 0.00 0.00 98 1022.0
20260502105048 42 125 0.0 0.0 0.00 0.00 0.00 98 1022.1
20260502104545 42 125 0.0 0.0 0.00 0.00 0.00 98 1022.3
20260502104043 42 125 0.0 0.0 0.00 0.00 0.00 98 1022.0
20260502103540 43 125 0.0 0.0 0.00 0.00 0.00 98 1022.3
20260502103038 43 125 0.0 0.0 0.00 0.00 0.00 98 1022.2
20260502102534 43 125 0.0 0.0 0.00 0.00 0.00 98 1022.1
20260502102032 43 125 0.0 0.0 0.00 0.00 0.00 98 1022.2
20260502101529 43 125 0.0 0.0 0.00 0.00 0.00 98 1022.2
20260502101027 43 125 0.0 0.0 0.00 0.00 0.00 98 1022.1
20260502100526 44 125 0.0 0.0 0.00 0.00 0.00 98 1022.0
20260502091500 45 124 0.0 0.0 0.00 0.00 0.00 98 1021.6
20260502090958 45 122 0.0 0.0 0.00 0.00 0.00 98 1021.7
20260502090454 44 102 0.0 0.0 0.00 0.00 0.00 98 1021.6
20260502071349 48 134 0.0 0.0 0.00 0.00 0.00 93 1022.0
20260502070847 49 137 0.0 1.0 0.00 0.00 0.00 92 1021.7
20260502070344 49 94 0.0 0.0 0.00 0.00 0.00 93 1021.4
20260502065843 50 140 0.0 1.0 0.00 0.00 0.00 92 1022.1
20260502065340 49 180 1.0 1.0 0.00 0.00 0.00 93 1022.5
20260502064838 49 121 0.0 0.0 0.00 0.00 0.00 93 1022.6
20260502064336 49 141 0.0 0.0 0.00 0.00 0.00 93 1022.3
20260502063833 50 169 0.0 0.0 0.00 0.00 0.00 92 1022.1
20260502063331 50 146 0.0 0.0 0.00 0.00 0.00 92 1022.0
20260502062828 50 135 0.0 0.0 0.00 0.00 0.00 92 1021.4
20260502062325 50 138 0.0 0.0 0.00 0.00 0.00 92 1021.4
20260502061824 50 129 0.0 0.0 0.00 0.00 0.00 92 1021.5
20260502061322 50 129 0.0 0.0 0.00 0.00 0.00 92 1021.5
20260502060817 50 129 0.0 0.0 0.00 0.00 0.00 92 1021.3
20260502060312 50 129 0.0 0.0 0.00 0.00 0.00 92 1021.3
20260502055810 50 129 0.0 0.0 0.00 0.00 0.00 92 1021.2
20260502055308 50 129 0.0 0.0 0.00 0.00 0.00 91 1021.4
20260502054808 51 129 0.0 0.0 0.00 0.00 0.00 91 1021.4
20260502054305 51 127 0.0 0.0 0.00 0.00 0.00 90 1021.7
20260502053802 51 128 0.0 0.0 0.00 0.00 0.00 90 1022.0
20260502053259 51 129 0.0 0.0 0.00 0.00 0.00 89 1021.8
20260502052757 51 128 0.0 0.0 0.00 0.00 0.00 89 1021.4
20260502052255 52 124 0.0 0.0 0.00 0.00 0.00 88 1021.4
20260502051752 52 130 0.0 1.0 0.00 0.00 0.00 86 1021.2
20260502051251 52 123 0.0 0.0 0.00 0.00 0.00 82 1021.2
20260502050746 52 122 0.0 0.0 0.00 0.00 0.00 82 1020.9
20260502050242 52 53 1.0 2.0 0.00 0.00 0.00 82 1020.7
20260502045740 53 135 0.0 0.0 0.00 0.00 0.00 84 1020.6
20260502045237 53 135 0.0 0.0 0.00 0.00 0.00 82 1020.6
20260502044734 53 136 0.0 0.0 0.00 0.00 0.00 81 1020.5
20260502044230 53 135 0.0 0.0 0.00 0.00 0.00 81 1020.5
20260502043727 54 136 0.0 0.0 0.00 0.00 0.00 78 1020.3
20260502043225 54 136 0.0 0.0 0.00 0.00 0.00 75 1020.5
20260502042724 55 139 0.0 0.0 0.00 0.00 0.00 70 1020.6
20260502042222 55 142 0.0 0.0 0.00 0.00 0.00 70 1020.6
20260502041719 55 136 0.0 0.0 0.00 0.00 0.00 69 1020.4
20260502041216 55 133 0.0 0.0 0.00 0.00 0.00 72 1020.3
20260502040713 55 129 0.0 0.0 0.00 0.00 0.00 71 1019.8
20260502040210 55 129 0.0 0.0 0.00 0.00 0.00 72 1020.0
20260502035706 55 128 0.0 0.0 0.00 0.00 0.00 69 1020.3
20260502035203 55 130 0.0 0.0 0.00 0.00 0.00 68 1020.7
20260502034700 55 130 0.0 0.0 0.00 0.00 0.00 67 1020.8
20260502034159 55 130 0.0 0.0 0.00 0.00 0.00 67 1020.8
20260502033656 55 129 0.0 0.0 0.00 0.00 0.00 66 1020.9
20260502033154 55 129 0.0 0.0 0.00 0.00 0.00 66 1021.0
20260502032650 55 129 0.0 0.0 0.00 0.00 0.00 66 1020.6
20260502032146 55 129 0.0 0.0 0.00 0.00 0.00 66 1020.6
20260502031644 55 129 0.0 0.0 0.00 0.00 0.00 66 1020.9
20260502031142 55 129 0.0 0.0 0.00 0.00 0.00 66 1020.7
20260502030641 55 129 0.0 0.0 0.00 0.00 0.00 65 1020.7
20260502030138 55 129 0.0 0.0 0.00 0.00 0.00 65 1020.6
20260502025635 55 129 0.0 0.0 0.00 0.00 0.00 64 1020.6
20260502025133 55 130 0.0 0.0 0.00 0.00 0.00 64 1020.6
20260502024631 55 130 0.0 0.0 0.00 0.00 0.00 64 1020.6